When you browse on this site, cookies collect data to enhance your experience and personalize the content and advertising you see.
Visit our Privacy Policy to learn more. By continuing to use the site, you agree to this use of cookies and data.
  • In Italy
  • List of Countries
  • For 7 days
  • Water Temperature
  • Satellite Maps
  • Weather Map
  • Weather Widgets
  • user-avatar
    Login

    Hourly Weather Algiers

    Today, 12 December, Wednesday

    Time Temperature Precipitation Wind Pressure Humidity
    00:00 +12°C° 0 mm 3 mps 753 mmHg 71%
    01:00 +12°C° 0 mm 3 mps 752 mmHg 69%
    02:00 +12°C° 0 mm 3 mps 752 mmHg 67%
    03:00 +12°C° 0 mm 3 mps 752 mmHg 65%
    04:00 +11°C° 0 mm 3 mps 752 mmHg 63%
    05:00 +11°C° 0 mm 3 mps 752 mmHg 60%
    06:00 +11°C° 0 mm 3 mps 752 mmHg 58%
    07:00 +13°C° 0 mm 3 mps 752 mmHg 54%
    08:00 +14°C° 0 mm 3 mps 752 mmHg 50%
    09:00 +16°C° 0 mm 3 mps 753 mmHg 46%
    10:00 +17°C° 0 mm 4 mps 752 mmHg 45%
    11:00 +18°C° 0 mm 4 mps 752 mmHg 44%
    12:00 +19°C° 0 mm 4 mps 752 mmHg 42%
    13:00 +19°C° 0 mm 4 mps 752 mmHg 44%
    14:00 +19°C° 0 mm 4 mps 751 mmHg 46%
    15:00 +19°C° 0 mm 4 mps 751 mmHg 48%
    16:00 +18°C° 0 mm 4 mps 751 mmHg 56%
    17:00 +15°C° 0 mm 4 mps 751 mmHg 65%
    18:00 +13°C° 0 mm 3 mps 751 mmHg 73%
    19:00 +13°C° 0 mm 3 mps 751 mmHg 73%
    20:00 +13°C° 0 mm 3 mps 751 mmHg 73%
    21:00 +13°C° 0 mm 3 mps 751 mmHg 73%
    22:00 +12°C° 0 mm 3 mps 751 mmHg 72%
    23:00 +12°C° 0 mm 3 mps 751 mmHg 70%

    Tomorrow, 13 December, Thursday

    Time Temperature Precipitation Wind Pressure Humidity
    00:00 +12°C° 0 mm 3 mps 751 mmHg 69%
    01:00 +12°C° 0 mm 3 mps 750 mmHg 69%
    02:00 +12°C° 0 mm 4 mps 750 mmHg 68%
    03:00 +12°C° 0 mm 4 mps 749 mmHg 67%
    04:00 +12°C° 0 mm 4 mps 749 mmHg 68%
    05:00 +12°C° 0 mm 4 mps 749 mmHg 69%
    06:00 +12°C° 0 mm 4 mps 749 mmHg 70%
    07:00 +13°C° 0 mm 4 mps 748 mmHg 66%
    08:00 +14°C° 0 mm 5 mps 748 mmHg 62%
    09:00 +15°C° 0 mm 5 mps 748 mmHg 59%
    10:00 +16°C° 0 mm 5 mps 747 mmHg 55%
    11:00 +17°C° 0 mm 6 mps 747 mmHg 51%
    12:00 +18°C° 0 mm 7 mps 746 mmHg 48%
    13:00 +19°C° 0.1 mm 6 mps 746 mmHg 52%
    14:00 +17°C° 0.1 mm 6 mps 745 mmHg 56%
    15:00 +16°C° 0.1 mm 6 mps 744 mmHg 60%
    16:00 +15°C° 1 mm 6 mps 744 mmHg 64%
    17:00 +14°C° 1 mm 6 mps 743 mmHg 68%
    18:00 +14°C° 1 mm 6 mps 743 mmHg 71%
    19:00 +12°C° 1.1 mm 8 mps 743 mmHg 71%
    20:00 +12°C° 1.1 mm 10 mps 743 mmHg 70%
    21:00 +12°C° 1.1 mm 11 mps 743 mmHg 69%
    22:00 +11°C° 0.2 mm 11 mps 743 mmHg 70%
    23:00 +9°C° 0.2 mm 11 mps 743 mmHg 71%

    Day after tomorrow, 14 December, Friday

    Time Temperature Precipitation Wind Pressure Humidity
    00:00 +8°C° 0.2 mm 11 mps 743 mmHg 72%
    01:00 +8°C° 3.1 mm 11 mps 742 mmHg 77%
    02:00 +8°C° 3.1 mm 12 mps 741 mmHg 82%
    03:00 +7°C° 3.1 mm 12 mps 741 mmHg 87%
    04:00 +8°C° 2.6 mm 12 mps 741 mmHg 87%
    05:00 +8°C° 2.6 mm 11 mps 742 mmHg 87%
    06:00 +9°C° 2.6 mm 10 mps 742 mmHg 87%
    07:00 +9°C° 2.4 mm 10 mps 743 mmHg 88%
    08:00 +9°C° 2.4 mm 11 mps 744 mmHg 89%
    09:00 +11°C° 2.4 mm 11 mps 745 mmHg 90%
    10:00 +10°C° 3.8 mm 12 mps 746 mmHg 90%
    11:00 +10°C° 3.8 mm 12 mps 746 mmHg 91%
    12:00 +10°C° 3.8 mm 12 mps 747 mmHg 92%
    13:00 +11°C° 3.8 mm 11 mps 748 mmHg 92%
    14:00 +11°C° 3.8 mm 10 mps 748 mmHg 92%
    15:00 +11°C° 3.8 mm 10 mps 749 mmHg 92%
    16:00 +11°C° 1.2 mm 8 mps 750 mmHg 92%
    17:00 +10°C° 1.2 mm 7 mps 751 mmHg 91%
    18:00 +10°C° 1.2 mm 6 mps 751 mmHg 91%
    19:00 +10°C° 0.9 mm 6 mps 752 mmHg 91%
    20:00 +10°C° 0.9 mm 5 mps 752 mmHg 91%
    21:00 +10°C° 0.9 mm 5 mps 753 mmHg 90%
    22:00 +10°C° 0.4 mm 5 mps 753 mmHg 89%
    23:00 +10°C° 0.4 mm 5 mps 753 mmHg 88%

    15 December, Saturday

    Time Temperature Precipitation Wind Pressure Humidity
    00:00 +10°C° 0.4 mm 6 mps 753 mmHg 87%
    01:00 +10°C° 0.1 mm 5 mps 753 mmHg 87%
    02:00 +9°C° 0.1 mm 5 mps 753 mmHg 86%
    03:00 +9°C° 0.1 mm 5 mps 754 mmHg 86%
    04:00 +9°C° 0 mm 5 mps 754 mmHg 87%
    05:00 +8°C° 0 mm 4 mps 754 mmHg 87%
    06:00 +8°C° 0 mm 4 mps 754 mmHg 87%
    07:00 +10°C° 0 mm 4 mps 755 mmHg 84%
    08:00 +11°C° 0 mm 4 mps 755 mmHg 80%
    09:00 +12°C° 0 mm 5 mps 756 mmHg 77%
    10:00 +13°C° 0 mm 5 mps 756 mmHg 72%
    11:00 +13°C° 0 mm 6 mps 755 mmHg 66%
    12:00 +14°C° 0 mm 6 mps 755 mmHg 61%
    13:00 +14°C° 0 mm 6 mps 755 mmHg 60%
    14:00 +14°C° 0 mm 6 mps 755 mmHg 58%
    15:00 +14°C° 0 mm 6 mps 754 mmHg 57%
    16:00 +13°C° 0 mm 5 mps 755 mmHg 61%
    17:00 +12°C° 0 mm 5 mps 755 mmHg 65%
    18:00 +10°C° 0 mm 5 mps 755 mmHg 69%
    19:00 +10°C° 0 mm 5 mps 756 mmHg 68%
    20:00 +11°C° 0 mm 4 mps 756 mmHg 68%
    21:00 +11°C° 0 mm 4 mps 756 mmHg 68%
    22:00 +11°C° 0 mm 4 mps 756 mmHg 67%
    23:00 +11°C° 0 mm 4 mps 756 mmHg 66%

    16 December, Sunday

    Time Temperature Precipitation Wind Pressure Humidity
    00:00 +11°C° 0 mm 3 mps 755 mmHg 66%
    01:00 +11°C° 0 mm 3 mps 755 mmHg 64%
    02:00 +11°C° 0 mm 3 mps 755 mmHg 63%
    03:00 +11°C° 0 mm 3 mps 755 mmHg 62%
    04:00 +11°C° 0 mm 3 mps 755 mmHg 61%
    05:00 +11°C° 0 mm 3 mps 755 mmHg 61%
    06:00 +11°C° 0 mm 3 mps 755 mmHg 61%
    07:00 +13°C° 0 mm 3 mps 755 mmHg 60%
    08:00 +14°C° 0 mm 3 mps 756 mmHg 59%
    09:00 +16°C° 0 mm 3 mps 756 mmHg 58%
    10:00 +18°C° 0 mm 2 mps 756 mmHg 54%
    11:00 +19°C° 0 mm 2 mps 755 mmHg 51%
    12:00 +21°C° 0 mm 2 mps 755 mmHg 48%
    13:00 +22°C° 0 mm 1 mps 755 mmHg 49%
    14:00 +22°C° 0 mm 1 mps 754 mmHg 50%
    15:00 +21°C° 0 mm 0 mps 754 mmHg 51%
    16:00 +21°C° 0 mm 1 mps 754 mmHg 54%
    17:00 +20°C° 0 mm 1 mps 754 mmHg 57%
    18:00 +18°C° 0 mm 1 mps 755 mmHg 61%
    19:00 +17°C° 0 mm 2 mps 755 mmHg 60%
    20:00 +17°C° 0 mm 2 mps 755 mmHg 59%
    21:00 +16°C° 0 mm 2 mps 755 mmHg 59%
    22:00 +16°C° 0 mm 2 mps 755 mmHg 58%
    23:00 +16°C° 0 mm 2 mps 755 mmHg 57%

    17 December, Monday

    Time Temperature Precipitation Wind Pressure Humidity
    00:00 +16°C° 0 mm 2 mps 755 mmHg 56%
    01:00 +16°C° 0 mm 2 mps 755 mmHg 56%
    02:00 +14°C° 0 mm 3 mps 755 mmHg 56%
    03:00 +14°C° 0 mm 3 mps 755 mmHg 57%
    04:00 +14°C° 0 mm 3 mps 755 mmHg 57%
    05:00 +14°C° 0 mm 3 mps 755 mmHg 58%
    06:00 +13°C° 0 mm 3 mps 755 mmHg 59%
    07:00 +16°C° 0 mm 3 mps 755 mmHg 57%
    08:00 +17°C° 0 mm 2 mps 755 mmHg 56%
    09:00 +18°C° 0 mm 2 mps 755 mmHg 55%
    10:00 +19°C° 0 mm 2 mps 755 mmHg 52%
    11:00 +20°C° 0 mm 2 mps 755 mmHg 50%
    12:00 +20°C° 0 mm 2 mps 755 mmHg 47%
    13:00 +20°C° 0 mm 2 mps 755 mmHg 50%
    14:00 +20°C° 0 mm 3 mps 755 mmHg 53%
    15:00 +20°C° 0 mm 3 mps 755 mmHg 56%
    16:00 +18°C° 0 mm 2 mps 755 mmHg 63%
    17:00 +17°C° 0 mm 2 mps 755 mmHg 69%
    18:00 +15°C° 0 mm 2 mps 756 mmHg 75%
    19:00 +15°C° 0 mm 2 mps 756 mmHg 77%
    20:00 +14°C° 0 mm 1 mps 756 mmHg 78%
    21:00 +14°C° 0 mm 1 mps 757 mmHg 80%
    22:00 +14°C° 0 mm 1 mps 757 mmHg 80%
    23:00 +14°C° 0 mm 1 mps 757 mmHg 81%
    Show more